| time (UTC) | temp F | wind direction | speed knots | gust knots | rain 1hr in | rain 24hr in | rain mn in | humidity % | barometer mb |
| 20260507194536 | 47 | 324 | 0.0 | 0.0 | 0.00 | 0.00 | 0.00 | 79 | 1018.7 |
| 20260507193031 | 48 | 324 | 0.0 | 0.9 | 0.00 | 0.00 | 0.00 | 78 | 1018.6 |
| 20260507191530 | 48 | 324 | 0.0 | 0.0 | 0.00 | 0.00 | 0.00 | 76 | 1018.3 |
| 20260507190028 | 49 | 324 | 0.0 | 0.0 | 0.00 | 0.00 | 0.00 | 75 | 1018.1 |
| 20260507184525 | 49 | 324 | 0.0 | 0.0 | 0.00 | 0.00 | 0.00 | 73 | 1017.9 |
| 20260507183025 | 50 | 324 | 0.0 | 0.0 | 0.00 | 0.00 | 0.00 | 71 | 1017.9 |
| 20260507181524 | 51 | 324 | 0.0 | 0.0 | 0.00 | 0.00 | 0.00 | 71 | 1017.8 |
| 20260507180013 | 51 | 324 | 0.0 | 0.9 | 0.00 | 0.00 | 0.00 | 69 | 1017.7 |
| 20260507174515 | 52 | 324 | 0.0 | 2.6 | 0.00 | 0.00 | 0.00 | 69 | 1017.6 |
| 20260507173016 | 52 | 360 | 0.0 | 0.9 | 0.00 | 0.00 | 0.00 | 68 | 1017.5 |
| 20260507171508 | 52 | 321 | 0.0 | 3.5 | 0.00 | 0.00 | 0.00 | 69 | 1017.3 |
| 20260507170007 | 53 | 325 | 0.0 | 3.5 | 0.00 | 0.00 | 0.00 | 66 | 1017.1 |
| 20260507164507 | 53 | 360 | 0.0 | 2.6 | 0.00 | 0.00 | 0.00 | 63 | 1017.0 |
| 20260507163006 | 54 | 333 | 0.0 | 1.7 | 0.00 | 0.00 | 0.00 | 66 | 1017.2 |
| 20260507161505 | 54 | 360 | 0.0 | 2.6 | 0.00 | 0.00 | 0.00 | 65 | 1017.2 |
| 20260507160113 | 54 | 326 | 0.0 | 3.5 | 0.00 | 0.00 | 0.00 | 66 | 1017.2 |
| 20260507154551 | 54 | 304 | 0.0 | 3.5 | 0.00 | 0.00 | 0.00 | 66 | 1017.3 |
| 20260507153050 | 54 | 333 | 0.0 | 6.1 | 0.00 | 0.00 | 0.00 | 65 | 1017.2 |
| 20260507151556 | 54 | 311 | 0.0 | 2.6 | 0.00 | 0.00 | 0.00 | 64 | 1017.2 |
| 20260507150048 | 55 | 306 | 0.0 | 5.2 | 0.00 | 0.00 | 0.00 | 65 | 1017.2 |
| 20260507144547 | 54 | 316 | 0.0 | 2.6 | 0.00 | 0.00 | 0.00 | 64 | 1017.2 |
| 20260507143045 | 55 | 17 | 0.0 | 4.3 | 0.00 | 0.00 | 0.00 | 66 | 1017.2 |
| 20260507141543 | 54 | 295 | 0.9 | 4.3 | 0.00 | 0.00 | 0.00 | 67 | 1017.2 |
| 20260507140041 | 55 | 360 | 0.0 | 2.6 | 0.00 | 0.00 | 0.00 | 68 | 1017.3 |
| 20260507134531 | 54 | 281 | 0.0 | 4.3 | 0.00 | 0.00 | 0.00 | 68 | 1017.3 |
| 20260507133033 | 54 | 304 | 0.0 | 3.5 | 0.00 | 0.00 | 0.00 | 69 | 1017.3 |
| 20260507131548 | 54 | 313 | 0.0 | 3.5 | 0.00 | 0.00 | 0.00 | 70 | 1017.2 |
| 20260507130027 | 54 | 302 | 0.0 | 3.5 | 0.00 | 0.00 | 0.00 | 68 | 1017.1 |
| 20260507124525 | 55 | 333 | 0.0 | 3.5 | 0.00 | 0.00 | 0.00 | 69 | 1017.0 |
| 20260507123028 | 55 | 9 | 0.0 | 3.5 | 0.00 | 0.00 | 0.00 | 69 | 1016.9 |
| 20260507121522 | 55 | 348 | 0.9 | 3.5 | 0.00 | 0.00 | 0.00 | 67 | 1016.9 |
| 20260507120022 | 54 | 347 | 0.0 | 3.5 | 0.00 | 0.00 | 0.00 | 69 | 1016.7 |
| 20260507114508 | 55 | 349 | 0.0 | 2.6 | 0.00 | 0.00 | 0.00 | 69 | 1016.9 |
| 20260507113007 | 54 | 320 | 0.0 | 3.5 | 0.00 | 0.00 | 0.00 | 72 | 1016.7 |
| 20260507111507 | 54 | 321 | 0.0 | 2.6 | 0.00 | 0.00 | 0.00 | 71 | 1016.7 |
| 20260507110006 | 55 | 306 | 0.0 | 3.5 | 0.00 | 0.00 | 0.00 | 72 | 1016.8 |
| 20260507104505 | 54 | 344 | 0.0 | 2.6 | 0.00 | 0.00 | 0.00 | 73 | 1016.7 |
| 20260507103002 | 54 | 327 | 0.0 | 1.7 | 0.00 | 0.00 | 0.00 | 73 | 1016.7 |
| 20260507101601 | 54 | 331 | 0.0 | 2.6 | 0.00 | 0.00 | 0.00 | 73 | 1016.6 |
| 20260507100100 | 54 | 330 | 0.0 | 2.6 | 0.00 | 0.00 | 0.00 | 74 | 1016.5 |
| 20260507094605 | 54 | 300 | 0.9 | 3.5 | 0.00 | 0.00 | 0.00 | 73 | 1016.4 |
| 20260507093041 | 55 | 317 | 0.0 | 3.5 | 0.00 | 0.00 | 0.00 | 72 | 1016.3 |
| 20260507091541 | 54 | 9 | 0.0 | 3.5 | 0.00 | 0.00 | 0.00 | 73 | 1016.2 |
| 20260507090035 | 54 | 309 | 0.0 | 3.5 | 0.00 | 0.00 | 0.00 | 72 | 1016.1 |
| 20260507084546 | 54 | 302 | 0.0 | 3.5 | 0.00 | 0.00 | 0.00 | 74 | 1016.0 |
| 20260507083029 | 54 | 349 | 0.0 | 4.3 | 0.00 | 0.00 | 0.00 | 73 | 1016.0 |
| 20260507081528 | 54 | 344 | 0.0 | 3.5 | 0.00 | 0.00 | 0.00 | 75 | 1015.7 |
| 20260507080023 | 53 | 5 | 0.0 | 3.5 | 0.00 | 0.00 | 0.00 | 76 | 1015.6 |
| 20260507074521 | 52 | 305 | 0.0 | 3.5 | 0.00 | 0.00 | 0.00 | 78 | 1015.6 |
| 20260507073004 | 51 | 360 | 0.0 | 1.7 | 0.00 | 0.00 | 0.00 | 79 | 1015.4 |
| 20260507071507 | 51 | 266 | 0.0 | 2.6 | 0.00 | 0.00 | 0.00 | 79 | 1015.3 |
| 20260507070110 | 50 | 38 | 0.0 | 4.3 | 0.00 | 0.00 | 0.00 | 80 | 1015.3 |
| 20260507064559 | 49 | 257 | 0.0 | 4.3 | 0.00 | 0.00 | 0.00 | 81 | 1015.2 |
| 20260507063055 | 48 | 258 | 0.0 | 6.1 | 0.00 | 0.00 | 0.00 | 83 | 1015.1 |
| 20260507061549 | 47 | 360 | 0.0 | 3.5 | 0.00 | 0.00 | 0.00 | 88 | 1015.0 |
| 20260507060046 | 46 | 227 | 0.0 | 5.2 | 0.00 | 0.00 | 0.00 | 91 | 1015.0 |
| 20260507054542 | 44 | 360 | 0.9 | 4.3 | 0.00 | 0.00 | 0.00 | 93 | 1015.0 |
| 20260507053028 | 43 | 219 | 0.0 | 0.9 | 0.00 | 0.00 | 0.00 | 93 | 1015.0 |
| 20260507051521 | 41 | 219 | 0.0 | 0.9 | 0.00 | 0.00 | 0.00 | 94 | 1014.9 |
| 20260507050036 | 39 | 219 | 0.0 | 0.0 | 0.00 | 0.00 | 0.00 | 93 | 1014.8 |
| 20260507044519 | 37 | 219 | 0.0 | 0.0 | 0.00 | 0.00 | 0.00 | 93 | 1014.7 |
| 20260507043008 | 36 | 219 | 0.0 | 0.0 | 0.00 | 0.00 | 0.00 | 93 | 1014.6 |
| 20260507041505 | 35 | 219 | 0.0 | 0.0 | 0.00 | 0.00 | 0.00 | 93 | 1014.5 |
| 20260507040002 | 35 | 219 | 0.0 | 0.0 | 0.00 | 0.00 | 0.00 | 93 | 1014.4 |
| 20260507034607 | 35 | 219 | 0.0 | 0.0 | 0.00 | 0.00 | 0.00 | 93 | 1014.4 |
| 20260507033102 | 34 | 219 | 0.0 | 0.0 | 0.00 | 0.00 | 0.00 | 92 | 1014.3 |
| 20260507031543 | 33 | 219 | 0.0 | 0.0 | 0.00 | 0.00 | 0.00 | 92 | 1014.2 |
| 20260507030044 | 33 | 219 | 0.0 | 0.0 | 0.00 | 0.00 | 0.00 | 92 | 1014.2 |
| 20260507024545 | 33 | 219 | 0.0 | 0.0 | 0.00 | 0.00 | 0.00 | 92 | 1014.0 |
| 20260507023038 | 34 | 219 | 0.0 | 0.0 | 0.00 | 0.00 | 0.00 | 92 | 1014.0 |
| 20260507021548 | 34 | 219 | 0.0 | 0.0 | 0.00 | 0.00 | 0.00 | 92 | 1013.9 |
| 20260507020034 | 34 | 219 | 0.0 | 0.0 | 0.00 | 0.00 | 0.00 | 91 | 1013.9 |
| 20260507014532 | 35 | 219 | 0.0 | 0.0 | 0.00 | 0.00 | 0.00 | 91 | 1013.7 |
| 20260507013033 | 36 | 219 | 0.0 | 0.0 | 0.00 | 0.00 | 0.00 | 91 | 1013.6 |
| 20260507011522 | 37 | 219 | 0.0 | 0.0 | 0.00 | 0.00 | 0.00 | 91 | 1013.6 |
| 20260507010026 | 37 | 219 | 0.0 | 0.0 | 0.00 | 0.00 | 0.00 | 91 | 1013.5 |
| 20260507004509 | 38 | 219 | 0.0 | 0.0 | 0.00 | 0.00 | 0.00 | 91 | 1013.5 |
| 20260507003007 | 39 | 219 | 0.0 | 0.0 | 0.00 | 0.00 | 0.00 | 90 | 1013.5 |
| 20260507001506 | 39 | 219 | 0.0 | 0.9 | 0.00 | 0.00 | 0.00 | 91 | 1013.4 |
| 20260507000003 | 39 | 219 | 0.0 | 0.0 | 0.00 | 0.00 | 0.00 | 90 | 1013.4 |
| 20260506234502 | 39 | 219 | 0.0 | 1.7 | 0.00 | 0.00 | 0.00 | 90 | 1013.2 |
| 20260506233002 | 40 | 219 | 0.0 | 0.9 | 0.00 | 0.00 | 0.00 | 90 | 1013.2 |
| 20260506231549 | 39 | 219 | 0.0 | 0.9 | 0.00 | 0.00 | 0.00 | 89 | 1013.2 |
| 20260506230050 | 39 | 219 | 0.0 | 0.0 | 0.00 | 0.00 | 0.00 | 88 | 1013.2 |
| 20260506224547 | 40 | 219 | 0.0 | 0.9 | 0.00 | 0.00 | 0.00 | 87 | 1013.2 |
| 20260506223048 | 41 | 219 | 0.0 | 0.9 | 0.00 | 0.00 | 0.00 | 87 | 1013.3 |
| 20260506221543 | 41 | 219 | 0.0 | 0.0 | 0.00 | 0.00 | 0.00 | 86 | 1013.2 |
| 20260506220040 | 41 | 219 | 0.0 | 0.9 | 0.00 | 0.00 | 0.00 | 85 | 1013.2 |
| 20260506214541 | 42 | 219 | 0.0 | 1.7 | 0.00 | 0.00 | 0.00 | 84 | 1013.1 |
| 20260506213036 | 42 | 219 | 0.0 | 0.9 | 0.00 | 0.00 | 0.00 | 82 | 1013.0 |
| 20260506211515 | 43 | 219 | 0.0 | 0.9 | 0.00 | 0.00 | 0.00 | 80 | 1012.9 |
| 20260506210012 | 44 | 219 | 0.0 | 1.7 | 0.00 | 0.00 | 0.00 | 78 | 1012.8 |
| 20260506204601 | 44 | 202 | 0.0 | 0.9 | 0.00 | 0.00 | 0.00 | 76 | 1012.7 |
| 20260506203055 | 45 | 202 | 0.0 | 2.6 | 0.00 | 0.00 | 0.00 | 74 | 1012.6 |
| 20260506201557 | 45 | 198 | 0.0 | 0.0 | 0.00 | 0.00 | 0.00 | 71 | 1012.4 |
| 20260506200108 | 45 | 198 | 0.0 | 0.0 | 0.00 | 0.00 | 0.00 | 69 | 1012.4 |